This is the latest recevied weather packets stored in our database for station/object AD0YN. If no packets are shown the sender has not sent any weather packets the latest 10 day(s).
| Time | Temp. | Humidity | Pressure | Rain* | Wind** | Luminosity | Snow |
|---|---|---|---|---|---|---|---|
| 1778069055 | 7.78° C | 67% | 1015.9 hPa | 0 mm | - | 31 W/m² | - |
| 1778068752 | 7.78° C | 65% | 1016.2 hPa | 0 mm | - | 30 W/m² | - |
| 1778068450 | 7.78° C | 65% | 1016.1 hPa | 0 mm | - | 25 W/m² | - |
| 1778068148 | 7.78° C | 65% | 1016.4 hPa | 0 mm | - | 22 W/m² | - |
| 1778067845 | 7.78° C | 62% | 1015.8 hPa | 0 mm | - | 20 W/m² | - |
| 1778067544 | 7.78° C | 62% | 1016 hPa | 0 mm | - | 16 W/m² | - |
| 1778067241 | 7.78° C | 62% | 1016.1 hPa | 0 mm | - | 10 W/m² | - |
| 1778066937 | 7.78° C | 61% | 1015.9 hPa | 0 mm | - | 7 W/m² | - |
| 1778066635 | 7.78° C | 61% | 1016 hPa | 0 mm | - | 6 W/m² | - |
| 1778066332 | 7.78° C | 61% | 1015.9 hPa | 0 mm | - | 4 W/m² | - |
| 1778066030 | 7.78° C | 62% | 1015.5 hPa | 0 mm | - | 2 W/m² | - |
| 1778065727 | 7.78° C | 63% | 1015.9 hPa | 0 mm | - | 1 W/m² | - |
| 1778065424 | 7.78° C | 64% | 1015.6 hPa | 0 mm | - | 1 W/m² | - |
| 1778065121 | 7.78° C | 63% | 1015.3 hPa | 0 mm | - | 0 W/m² | - |
| 1778064817 | 7.78° C | 63% | 1015 hPa | 0 mm | - | 0 W/m² | - |
| 1778064515 | 7.78° C | 65% | 1015.2 hPa | 0 mm | - | 0 W/m² | - |
| 1778064213 | 7.78° C | 63% | 1015.2 hPa | 0 mm | - | 0 W/m² | - |
| 1778063910 | 7.78° C | 66% | 1014.7 hPa | 0 mm | - | 0 W/m² | - |
| 1778063608 | 7.78° C | 65% | 1014.9 hPa | 0 mm | - | 0 W/m² | - |
| 1778063305 | 7.78° C | 63% | 1014.4 hPa | 0 mm | - | 0 W/m² | - |
| 1778063003 | 8.33° C | 64% | 1014.4 hPa | 0 mm | - | 0 W/m² | - |
| 1778062700 | 8.33° C | 62% | 1014.4 hPa | 0 mm | - | 0 W/m² | - |
| 1778062395 | 8.33° C | 61% | 1014.7 hPa | 0 mm | - | 0 W/m² | - |
| 1778062094 | 8.33° C | 61% | 1014.6 hPa | 0 mm | - | 0 W/m² | - |
| 1778061792 | 8.33° C | 61% | 1014.4 hPa | 0 mm | - | 0 W/m² | - |
* Rain latest hour (hover to see other rain measurements)
** Current wind speed in m/s (hover to see current wind gust speed)